Location: Joplin, MO
(37.0842°N, 94.5133°W)
Time: 20:17:09
(UTC+02:00)

Courier 1B Rocket - Pass Details

Date: 02 April 2023
Orbit: 920 x 1202 km, 28.2° (Epoch: 08 June)

Event Time Altitude Azimuth Distance (km) Brightness Sun altitude
Rises 22:36:52 0° 203° (SSW) 4,080 8.8 45.5°
Reaches altitude 10° 22:41:26 10° 180° (S) 3,121 8.2 44.8°
Maximum altitude 22:45:04 14° 152° (SSE) 2,824 7.6 44.2°
Drops below altitude 10° 22:48:39 10° 123° (ESE) 3,093 7.6 43.6°
Sets 22:53:08 0° 100° (E) 4,017 7.9 42.9°
